Regional Weather Roundup
Issued by NWS Charleston, WV

Home | Current Version | Previous Version | Text Only | Print | Product List | Glossary On
Versions: 1 2 3 4 5 6 7 8 9 10 11 12 13 14 15 16 17 18 19 20 21 22 23 24 25 26 27 28 29 30 31 32 33 34 35 36 37 38 39 40 41 42 43 44 45 46 47 48 49 50
000
ASUS41 KRLX 162210
RWRRLX
Regional Weather Roundup
National Weather Service Charleston WV
600 PM EDT SUN MAY 16 2021

Note: "fair" indicates few or no clouds below 12,000 feet with no
significant weather and/or obstructions to visibility.

WVZ003-162300-
Northern Panhandle of West Virginia

CITY           SKY/WX    TMP DP  RH WIND       PRES   REMARKS
WHEELING       CLOUDY    69  42  37 SE6       30.21S
$$

WVZ009-162300-
Northwest West Virginia

CITY           SKY/WX    TMP DP  RH WIND       PRES   REMARKS
PARKERSBURG    CLOUDY    69  44  40 SE3       30.21S
$$

WVZ006-162300-
Western West Virginia

CITY           SKY/WX    TMP DP  RH WIND       PRES   REMARKS
HUNTINGTON       N/A     68  49  50 CALM      30.20F
$$

WVZ015-162300-
West Central West Virginia

CITY           SKY/WX    TMP DP  RH WIND       PRES   REMARKS
CHARLESTON     PTSUNNY   69  48  47 SW8       30.21S
$$

WVZ509-031-039-162300-
North Central West Virginia

CITY           SKY/WX    TMP DP  RH WIND       PRES   REMARKS
MORGANTOWN     CLOUDY    68  42  38 S6        30.23S
CLARKSBURG     MOSUNNY   64  44  48 SW3       30.23S
BUCKHANNON     PTSUNNY   68  45  42 CALM      30.23S
$$

WVZ515-516-025-034-042-507-162300-
Southern West Virginia

CITY           SKY/WX    TMP DP  RH WIND       PRES   REMARKS
BECKLEY        CLOUDY    59  48  67 W6        30.26S
LOGAN          CLOUDY    61  52  72 VRB5      30.24S
PINEVILLE      CLOUDY    61  52  71 MISG      30.30S
BLUEFIELD      CLOUDY    54  47  77 CALM      30.28S
LEWISBURG      CLOUDY    61  48  63 W6        30.26R
$$

WVZ525-526-162300-
Northern Mountains of West Virginia

CITY           SKY/WX    TMP DP  RH WIND       PRES   REMARKS
ELKINS         PTSUNNY   63  37  38 N3        30.24S
$$

WVZ502-504-052-162300-
Eastern Panhandle of West Virginia

CITY           SKY/WX    TMP DP  RH WIND       PRES   REMARKS
PETERSBURG     PTSUNNY   62  52  70 CALM      30.25S
CUMBERLAND     MOSUNNY   63  52  66 SE3       30.29F
MARTINSBURG    CLOUDY    57  50  77 E6        30.26S
$$

OHZ075-083-KYZ101-162300-
Southeast Ohio/Northeast Kentucky

CITY           SKY/WX    TMP DP  RH WIND       PRES   REMARKS
ATHENS         CLOUDY    69  47  44 CALM      30.20R
JACKSON        CLOUDY    70  46  43 S5        30.22R
ASHLAND        MOSUNNY   69  50  50 CALM      30.21S
$$



USA.gov is the U.S. government's official web portal to all federal, state and local government web resources and services.